Location: Dannhausen
(51.8650°N, 10.1026°E)
Time: 17:07:01
(UTC+00:00)

Cosmos 2360 Rocket - Visible Passes

Search period start: 04 August 2021 00:00
Search period end: 14 August 2021 00:00
Orbit: 835 x 843 km, 71.0° (Epoch: 04 August)

Date Brightness Start Highest point End Pass type
(mag) Time Alt. Az. Time Alt. Az. Time Alt. Az.
04 Aug 3.8 21:10:23 10° NW 21:15:02 27° WSW 21:19:41 10° SSW visible
05 Aug 3.7 20:54:33 10° NW 20:59:19 29° WSW 21:04:04 10° SSW visible
06 Aug 3.7 20:38:45 10° NW 20:43:35 30° WSW 20:48:25 10° SSW visible
07 Aug 3.7 20:22:56 10° NW 20:27:51 32° WSW 20:32:47 10° SSW visible
08 Aug 3.6 20:07:06 10° NW 20:12:08 34° WSW 20:17:08 10° S visible
09 Aug 3.6 19:51:18 10° NW 19:56:24 36° WSW 20:01:28 10° S visible
10 Aug 3.5 19:35:30 10° NW 19:40:39 38° WSW 19:45:48 10° S visible
11 Aug 3.5 19:19:42 10° NW 19:24:55 40° WSW 19:30:08 10° S visible
